sat.trackr.live / text

‹ back to catalog

STARLINK-5874

NORAD 56353 · 2023-058AN

PAYLOAD ACTIVE UNKNOWN

§ Identity

Operator
Country
US
Launch date
2023-04-27
Launch site
AFWTR
Launch vehicle
Mass (kg)
RCS (m²)

Purposes: comms

External: N2YO · Heavens-Above · Gunter

§ Orbital elements

Epoch: 2026-09-20T22:00:03.000096Z

Period
94.63 min
Inclination
97.2851°
Eccentricity
0.0001653
Mean motion
15.21652382 rev/d
Perigee alt
499.7 km
Apogee alt
502.0 km
Semi-major
6,879.0 km
B*
2.8447e-2
RAAN
257.8284°
Arg perigee
83.6028°
Mean anomaly
122.3539°
Rev number
578

§ Raw data

STARLINK-58741 56353U 23058AN  26263.91670139  .00687556  00000+0  28447-1 0  99972 56353  97.2851 257.8284 0001653  83.6028 122.3539 15.21652382  5784

JSON: /api/v1/satellites/56353 · /tle

For live sub-satellite position, see the globe view (requires WebGL).

§ Visibility from observer

Set your observer location to see the next 7 days of passes ≥ 10°. The values pass through the URL so the page stays shareable.

No JS? Fill the form by hand. The geolocation button needs JavaScript.